FW6744 Weather Reports


Display with metric or nautical units.
time (UTC)temp
F
wind
direction
speed
MPH
gust
MPH
rain 1hr
in
rain 24hr
in
rain mn
in
humidity
%
barometer
mb
20260507144039 57 27 0.0 2.0 0.00 0.00 0.01 78 1007.7
20260507143534 58 32 0.0 2.0 0.00 0.00 0.01 78 1007.8
20260507143027 58 191 0.0 3.0 0.00 0.00 0.01 78 1007.9
20260507142738 58 20 0.0 3.0 0.00 0.00 0.01 79 1007.9
20260507142015 58 38 0.0 1.0 0.00 0.00 0.01 80 1008.0
20260507141727 58 38 0.0 3.0 0.00 0.00 0.01 79 1008.2
20260507141232 58 39 1.0 3.0 0.00 0.00 0.01 79 1008.2
20260507140457 58 31 1.0 3.0 0.00 0.00 0.01 78 1008.2
20260507135952 58 32 1.0 3.0 0.00 0.00 0.01 78 1008.2
20260507135444 58 35 1.0 3.0 0.00 0.00 0.01 78 1008.1
20260507134939 58 20 1.0 3.0 0.00 0.00 0.01 79 1008.0
20260507134433 58 31 0.0 2.0 0.00 0.00 0.01 79 1008.2
20260507133929 58 30 0.0 2.0 0.00 0.00 0.01 80 1008.0
20260507133421 58 31 1.0 4.0 0.00 0.00 0.01 80 1008.0
20260507132915 58 32 1.0 4.0 0.00 0.00 0.01 80 1007.8
20260507132409 58 25 0.0 2.0 0.00 0.00 0.01 80 1008.3
20260507131905 58 36 1.0 3.0 0.00 0.00 0.01 80 1007.8
20260507131356 58 48 0.0 3.0 0.00 0.00 0.01 81 1007.8
20260507130851 58 41 0.0 2.0 0.00 0.00 0.01 82 1008.0
20260507130345 58 37 0.0 3.0 0.00 0.00 0.01 83 1007.7
20260507125839 58 27 0.0 3.0 0.00 0.00 0.01 84 1007.7
20260507125333 58 20 0.0 2.0 0.00 0.00 0.01 85 1007.9
20260507124827 58 214 0.0 1.0 0.00 0.00 0.01 86 1007.7
20260507124811 57 24 0.0 0.0 0.00 0.00 0.01 86 1007.9
20260507124040 57 23 0.0 0.0 0.00 0.00 0.01 86 1007.7
20260507123534 57 23 0.0 0.0 0.00 0.00 0.01 86 1007.8
20260507122803 57 32 0.0 1.0 0.00 0.00 0.01 86 1007.8
20260507122257 57 29 0.0 1.0 0.00 0.00 0.01 86 1007.8
20260507121751 57 29 0.0 4.0 0.00 0.00 0.01 85 1007.7
20260507121245 57 37 0.0 4.0 0.00 0.00 0.01 85 1007.6
20260507120739 57 27 0.0 3.0 0.00 0.00 0.01 85 1007.4
20260507120233 57 27 0.0 3.0 0.00 0.00 0.01 85 1007.5
20260507115729 57 27 0.0 2.0 0.00 0.00 0.01 85 1007.7
20260507115221 57 38 0.0 2.0 0.00 0.00 0.01 84 1007.7
20260507114939 57 20 0.0 3.0 0.00 0.00 0.01 84 1007.9
20260507114209 57 19 1.0 3.0 0.00 0.00 0.01 84 1007.7
20260507113703 57 27 0.0 3.0 0.00 0.00 0.01 83 1007.7
20260507113157 57 25 0.0 3.0 0.00 0.00 0.01 83 1007.7
20260507112651 57 32 0.0 3.0 0.00 0.00 0.01 83 1007.5
20260507112145 57 34 0.0 1.0 0.00 0.00 0.01 83 1007.3
20260507111639 57 29 0.0 1.0 0.00 0.00 0.01 83 1007.2
20260507111134 57 29 1.0 4.0 0.00 0.00 0.01 83 1007.2
20260507110627 57 28 1.0 4.0 0.00 0.00 0.01 82 1007.4
20260507110121 57 24 0.0 2.0 0.00 0.00 0.01 83 1007.4
20260507105618 57 33 0.0 2.0 0.00 0.00 0.01 83 1007.4
20260507105109 57 33 0.0 2.0 0.00 0.00 0.01 83 1007.1
20260507104603 57 32 0.0 2.0 0.00 0.00 0.01 83 1007.0
20260507104057 57 32 0.0 2.0 0.00 0.00 0.01 83 1007.0
20260507103812 57 30 0.0 1.0 0.00 0.00 0.01 83 1006.9
20260507103045 57 30 0.0 1.0 0.00 0.00 0.01 84 1006.9
20260507102800 57 30 0.0 1.0 0.00 0.00 0.01 84 1006.8
20260507102040 57 30 0.0 1.0 0.00 0.00 0.01 85 1006.6
20260507101541 57 30 0.0 1.0 0.00 0.00 0.01 85 1006.4
20260507101037 57 30 0.0 3.0 0.00 0.00 0.01 84 1006.5
20260507100536 57 30 1.0 3.0 0.00 0.00 0.01 84 1006.8
20260507100300 57 32 1.0 3.0 0.00 0.00 0.01 85 1006.9
20260507095536 57 30 1.0 3.0 0.00 0.00 0.01 86 1007.0
20260507095036 57 30 0.0 3.0 0.00 0.00 0.01 88 1007.1
20260507094538 57 30 0.0 3.0 0.00 0.00 0.01 88 1006.9
20260507094039 58 32 0.0 2.0 0.00 0.00 0.01 89 1007.0
20260507093540 58 32 0.0 2.0 0.00 0.00 0.01 88 1007.1
20260507093039 58 28 1.0 1.0 0.00 0.00 0.01 89 1007.1
20260507092534 58 33 0.0 0.0 0.00 0.00 0.01 89 1006.8
20260507092223 58 30 0.0 4.0 0.01 0.11 0.01 89 1006.9
20260507091724 58 33 0.0 1.0 0.01 0.11 0.01 90 1006.8
20260507091225 58 32 1.0 2.0 0.01 0.11 0.01 89 1006.8
20260507090725 58 22 1.0 3.0 0.01 0.11 0.01 89 1006.7
20260507090225 58 18 0.0 3.0 0.01 0.11 0.01 89 1006.8
20260507085725 59 28 1.0 3.0 0.01 0.11 0.01 88 1006.7
20260507085223 59 28 1.0 3.0 0.01 0.11 0.01 88 1006.8
20260507084723 59 27 0.0 3.0 0.01 0.11 0.01 88 1006.8
20260507084225 60 217 0.0 1.0 0.01 0.11 0.01 88 1006.5
20260507083724 60 209 0.0 2.0 0.00 0.10 0.00 87 1006.7
20260507083224 60 31 1.0 6.0 0.00 0.10 0.00 87 1006.5
20260507082724 60 32 2.0 6.0 0.00 0.10 0.00 86 1006.3
20260507082223 60 33 2.0 5.0 0.00 0.10 0.00 85 1006.5
20260507081723 61 30 2.0 5.0 0.00 0.10 0.00 85 1006.5
20260507081224 62 34 1.0 4.0 0.00 0.10 0.00 86 1006.6
20260507080725 62 338 1.0 4.0 0.00 0.10 0.00 86 1006.3
20260507080222 63 32 1.0 5.0 0.00 0.10 0.00 85 1006.2
20260507075722 65 23 1.0 5.0 0.00 0.10 0.00 87 1005.9
20260507075223 66 25 1.0 4.0 0.00 0.10 0.00 89 1005.7
20260507074721 66 25 0.0 4.0 0.00 0.10 0.00 90 1005.4
20260507074221 67 65 0.0 0.0 0.00 0.10 0.00 90 1005.5
20260507073945 67 152 0.0 0.0 0.00 0.10 0.00 90 1005.6
20260507073224 67 153 0.0 0.0 0.00 0.10 0.00 89 1005.6
20260507072720 67 152 0.0 0.0 0.00 0.10 0.00 89 1005.4
20260507072219 67 153 0.0 0.0 0.00 0.10 0.00 88 1005.5
20260507071717 68 153 0.0 0.0 0.00 0.10 0.00 88 1005.6
20260507071219 68 153 0.0 0.0 0.00 0.10 0.00 87 1005.6
20260507070718 68 152 0.0 0.0 0.00 0.10 0.00 87 1005.7
20260507070218 68 29 0.0 0.0 0.00 0.10 0.00 86 1005.6
20260507065717 69 29 0.0 1.0 0.00 0.10 0.00 86 1005.4
20260507065216 69 29 0.0 4.0 0.00 0.10 0.00 85 1005.0
20260507064715 69 224 0.0 4.0 0.00 0.10 0.00 85 1005.1
20260507064214 69 197 0.0 1.0 0.00 0.10 0.00 85 1004.9
20260507063714 69 223 0.0 1.0 0.00 0.10 0.00 85 1004.9
20260507063428 69 214 0.0 2.0 0.00 0.10 0.00 84 1004.8
20260507062709 69 221 0.0 3.0 0.00 0.10 0.00 84 1004.7
20260507062211 69 174 0.0 5.0 0.00 0.10 0.00 84 1004.5
20260507061927 69 6 0.0 5.0 0.00 0.10 0.00 84 1004.4
20260507061204 69 359 0.0 1.0 0.00 0.10 0.00 84 1004.4
20260507060657 69 31 0.0 4.0 0.00 0.10 0.00 84 1004.3
20260507060152 69 230 0.0 4.0 0.00 0.10 0.00 84 1004.4
20260507055646 69 259 0.0 2.0 0.00 0.10 0.00 84 1004.5
20260507055139 69 135 0.0 2.0 0.00 0.10 0.00 84 1004.6
20260507054634 69 231 0.0 1.0 0.00 0.10 0.00 84 1004.7
20260507054128 69 220 0.0 2.0 0.00 0.10 0.00 84 1004.4
20260507053623 69 285 0.0 2.0 0.00 0.10 0.00 84 1004.5
20260507053116 69 285 0.0 1.0 0.00 0.10 0.00 84 1004.6
20260507052609 69 285 0.0 2.0 0.00 0.10 0.00 84 1004.7
20260507052324 69 8 0.0 2.0 0.00 0.10 0.00 84 1004.8
20260507051558 69 63 0.0 4.0 0.00 0.10 0.00 84 1005.1
20260507051052 69 347 0.0 4.0 0.00 0.10 0.00 84 1005.3
20260507050546 69 300 0.0 4.0 0.00 0.10 0.00 84 1005.4
20260507050040 69 255 0.0 3.0 0.00 0.10 0.00 84 1005.5
20260507050023 69 155 0.0 4.0 0.00 0.10 0.00 84 1005.6
20260507045028 69 37 1.0 4.0 0.00 0.10 0.00 84 1005.7
20260507044522 69 77 0.0 3.0 0.00 0.10 0.00 84 1005.7
20260507044016 69 218 0.0 2.0 0.00 0.10 0.00 83 1005.7
20260507043510 70 288 0.0 3.0 0.00 0.10 0.00 83 1005.8
20260507043004 70 212 1.0 3.0 0.00 0.10 0.00 83 1006.0
20260507042458 70 38 1.0 7.0 0.00 0.10 0.00 83 1006.1
20260507042446 69 211 1.0 7.0 0.00 0.10 0.00 83 1005.8
20260507041446 69 233 0.0 3.0 0.00 0.10 0.00 83 1005.7
20260507040940 70 183 0.0 2.0 0.00 0.10 0.00 83 1005.4
20260507040438 70 171 0.0 2.0 0.00 0.10 0.00 83 1005.5
20260507035937 70 48 0.0 4.0 0.00 0.10 0.10 83 1005.6
20260507035436 70 356 1.0 4.0 0.00 0.10 0.10 83 1005.7
20260507034936 69 210 1.0 5.0 0.00 0.10 0.10 83 1005.8
20260507034437 69 221 0.0 5.0 0.00 0.10 0.10 84 1006.0
20260507033936 69 117 1.0 3.0 0.00 0.10 0.10 84 1006.0
20260507033436 69 203 1.0 6.0 0.00 0.10 0.10 84 1005.8
20260507032936 69 150 1.0 6.0 0.00 0.10 0.10 84 1005.8
20260507032436 69 228 0.0 3.0 0.00 0.10 0.10 85 1005.7
20260507031937 69 200 0.0 3.0 0.00 0.10 0.10 85 1005.6
20260507031435 69 195 0.0 3.0 0.00 0.10 0.10 86 1005.4
20260507030935 69 150 0.0 4.0 0.00 0.10 0.10 86 1005.6
20260507030434 68 150 0.0 4.0 0.00 0.10 0.10 86 1005.5
20260507025935 68 344 0.0 1.0 0.00 0.10 0.10 86 1005.4
20260507025434 68 344 0.0 1.0 0.00 0.10 0.10 86 1005.4
20260507024934 68 347 0.0 1.0 0.00 0.10 0.10 86 1005.4
20260507024649 68 347 0.0 1.0 0.00 0.10 0.10 85 1005.3
20260507024136 69 18 0.0 0.0 0.00 0.10 0.10 85 1005.5
20260507024025 69 348 0.0 0.0 0.00 0.10 0.10 85 1005.3
20260507023148 69 22 0.0 1.0 0.00 0.10 0.10 85 1005.4
20260507022429 68 24 0.0 1.0 0.00 0.10 0.10 85 1005.6
20260507021929 68 9 0.0 1.0 0.00 0.10 0.10 85 1005.6
20260507021430 68 354 0.0 1.0 0.00 0.10 0.10 85 1005.8
20260507020924 68 354 0.0 2.0 0.00 0.10 0.10 85 1005.8
20260507020419 68 354 0.0 2.0 0.00 0.10 0.10 85 1005.8
20260507015912 68 25 0.0 1.0 0.00 0.10 0.10 85 1005.9
20260507015406 68 25 0.0 1.0 0.00 0.10 0.10 85 1005.9
20260507014900 68 21 0.0 1.0 0.00 0.10 0.10 85 1005.9
20260507014353 68 27 0.0 1.0 0.00 0.10 0.10 85 1005.9
20260507014113 68 30 0.0 1.0 0.00 0.10 0.10 85 1005.8
20260507013341 68 4 0.0 2.0 0.00 0.10 0.10 85 1005.9
20260507012835 68 11 0.0 2.0 0.00 0.10 0.10 85 1005.9
20260507012550 68 66 0.0 1.0 0.00 0.10 0.10 85 1006.0
20260507011824 68 61 0.0 0.0 0.00 0.10 0.10 84 1005.9
20260507011547 68 316 0.0 0.0 0.00 0.10 0.10 84 1005.9
20260507010812 68 316 0.0 0.0 0.00 0.10 0.10 84 1005.8
20260507010527 68 316 0.0 0.0 0.00 0.10 0.10 83 1005.6
20260507005800 69 316 0.0 0.0 0.00 0.10 0.10 83 1005.4
20260507005254 69 316 0.0 5.0 0.00 0.10 0.10 83 1005.4
20260507004748 69 316 0.0 5.0 0.00 0.10 0.10 83 1005.7
20260507004242 69 230 0.0 1.0 0.00 0.10 0.10 82 1005.7
20260507003736 69 230 0.0 1.0 0.00 0.10 0.10 82 1005.8
20260507003230 69 230 0.0 1.0 0.00 0.10 0.10 82 1005.9
20260507002724 69 75 0.0 2.0 0.00 0.10 0.10 81 1005.9
20260507002217 70 148 0.0 3.0 0.00 0.10 0.10 81 1005.8
20260507001712 70 29 0.0 3.0 0.00 0.10 0.10 81 1005.8
20260507001207 70 221 0.0 3.0 0.00 0.10 0.10 81 1005.9
20260507000700 70 230 0.0 1.0 0.00 0.10 0.10 80 1005.9
20260507000155 70 131 0.0 1.0 0.00 0.10 0.10 80 1005.8
20260506235649 70 190 0.0 0.0 0.00 0.10 0.10 80 1005.8
20260506235406 70 148 0.0 4.0 0.00 0.10 0.10 79 1005.6
20260506234905 71 153 0.0 4.0 0.00 0.10 0.10 79 1005.6
20260506234130 71 221 0.0 3.0 0.00 0.10 0.10 78 1005.6
20260506233624 71 234 0.0 3.0 0.00 0.10 0.10 78 1005.5
20260506233118 71 226 0.0 3.0 0.00 0.10 0.10 78 1005.4
20260506232831 71 258 0.0 3.0 0.00 0.10 0.10 77 1005.5
20260506232106 71 193 0.0 1.0 0.00 0.10 0.10 77 1005.5
20260506231600 72 208 0.0 2.0 0.00 0.10 0.10 77 1005.5
20260506231054 72 196 0.0 2.0 0.00 0.10 0.10 77 1005.4
20260506230819 72 117 0.0 2.0 0.00 0.10 0.10 76 1005.3
20260506230042 72 166 0.0 3.0 0.00 0.10 0.10 76 1005.5
20260506225537 72 3 0.0 3.0 0.00 0.10 0.10 76 1005.5
20260506225030 71 284 0.0 3.0 0.00 0.10 0.10 76 1005.5
20260506224524 71 8 0.0 3.0 0.00 0.10 0.10 76 1005.6
20260506224240 71 184 1.0 4.0 0.00 0.10 0.10 76 1005.6
20260506223512 71 4 1.0 4.0 0.00 0.10 0.10 75 1005.5
20260506223005 71 217 0.0 5.0 0.00 0.10 0.10 76 1005.5
20260506222500 72 226 0.0 5.0 0.00 0.10 0.10 75 1005.5
20260506221954 72 240 0.0 1.0 0.00 0.10 0.10 75 1005.6
20260506221448 72 231 0.0 4.0 0.00 0.10 0.10 75 1005.5
20260506220942 72 125 1.0 4.0 0.00 0.10 0.10 74 1005.6
20260506220435 72 195 0.0 3.0 0.00 0.10 0.10 75 1005.4
20260506215928 72 259 0.0 2.0 0.00 0.10 0.10 74 1005.6
20260506215647 72 31 0.0 3.0 0.00 0.10 0.10 74 1005.6
20260506214916 72 227 0.0 3.0 0.00 0.10 0.10 74 1005.6
20260506214409 73 231 1.0 6.0 0.00 0.10 0.10 75 1005.6
20260506214135 73 162 1.0 6.0 0.00 0.10 0.10 75 1005.4
20260506213358 73 73 1.0 5.0 0.00 0.10 0.10 74 1005.7
20260506213112 73 270 1.0 5.0 0.00 0.10 0.10 75 1005.6
20260506212346 73 78 0.0 4.0 0.00 0.10 0.10 75 1005.6
20260506211840 73 198 0.0 3.0 0.00 0.10 0.10 75 1005.7
20260506211334 73 20 1.0 3.0 0.00 0.10 0.10 75 1005.6
20260506210832 73 91 1.0 4.0 0.00 0.10 0.10 76 1005.5
20260506210331 73 333 1.0 4.0 0.00 0.10 0.10 77 1005.5
20260506205831 73 292 1.0 6.0 0.00 0.10 0.10 76 1005.5
20260506205331 73 39 1.0 6.0 0.00 0.10 0.10 77 1005.6
20260506204831 73 156 0.0 2.0 0.00 0.10 0.10 79 1005.6
20260506204817 72 221 0.0 3.0 0.00 0.10 0.10 80 1005.8
20260506203830 71 34 0.0 3.0 0.00 0.10 0.10 81 1005.6
20260506203550 70 114 0.0 2.0 0.00 0.10 0.10 81 1005.3
20260506202825 70 67 0.0 2.0 0.00 0.10 0.10 81 1005.5
20260506202325 70 195 0.0 2.0 0.00 0.10 0.10 82 1005.7
20260506201826 70 197 0.0 4.0 0.00 0.10 0.10 81 1005.7
20260506201326 70 185 0.0 4.0 0.00 0.10 0.10 81 1005.8
20260506200826 69 188 0.0 3.0 0.00 0.10 0.10 82 1005.8
20260506200325 69 220 0.0 3.0 0.00 0.10 0.10 82 1005.8
20260506200318 69 175 0.0 3.0 0.00 0.10 0.10 82 1005.8
20260506195326 69 26 0.0 5.0 0.00 0.10 0.10 82 1005.3
20260506194819 69 226 0.0 5.0 0.00 0.10 0.10 83 1005.4
20260506194319 69 343 0.0 2.0 0.00 0.10 0.10 83 1005.1
20260506193819 69 342 0.0 2.0 0.00 0.10 0.10 83 1005.2
20260506193319 68 30 0.0 3.0 0.00 0.10 0.10 84 1005.2
20260506193314 68 22 0.0 3.0 0.00 0.10 0.10 84 1005.2
20260506192320 68 34 0.0 2.0 0.00 0.10 0.10 85 1005.5
20260506191819 67 200 0.0 1.0 0.00 0.10 0.10 85 1005.6
20260506191317 67 117 0.0 2.0 0.00 0.10 0.10 85 1005.8
20260506191046 67 149 0.0 3.0 0.00 0.10 0.10 86 1006.0
20260506190317 67 217 1.0 4.0 0.00 0.10 0.10 86 1006.0
20260506185818 67 211 0.0 4.0 0.00 0.10 0.10 86 1006.3
20260506185756 67 79 0.0 2.0 0.00 0.10 0.10 87 1006.2
20260506184818 66 288 0.0 2.0 0.00 0.10 0.10 86 1006.2
20260506184316 67 161 0.0 2.0 0.00 0.10 0.10 86 1006.1
20260506184038 67 167 0.0 4.0 0.00 0.10 0.10 86 1006.3
20260506183317 67 12 0.0 4.0 0.00 0.10 0.10 85 1006.4
20260506182816 67 162 0.0 4.0 0.00 0.10 0.10 85 1006.4
20260506182318 67 160 0.0 5.0 0.00 0.10 0.10 84 1006.4
20260506182037 67 176 1.0 5.0 0.00 0.10 0.10 84 1006.6
20260506181318 67 223 1.0 3.0 0.00 0.10 0.10 85 1006.9
20260506181038 67 302 0.0 3.0 0.00 0.10 0.10 85 1007.0
20260506180318 67 34 0.0 3.0 0.00 0.10 0.10 85 1006.9
20260506175817 67 229 0.0 4.0 0.00 0.10 0.10 85 1006.9
20260506175317 67 212 0.0 4.0 0.00 0.10 0.10 86 1007.1
20260506174818 67 172 0.0 7.0 0.00 0.10 0.10 86 1006.9
20260506174318 67 214 0.0 7.0 0.00 0.10 0.10 87 1006.9
20260506173816 67 214 0.0 4.0 0.00 0.10 0.10 87 1006.9
20260506173316 66 172 0.0 2.0 0.00 0.10 0.10 88 1006.8
20260506173038 66 61 0.0 1.0 0.00 0.10 0.10 89 1006.8
20260506172318 65 219 0.0 2.0 0.00 0.10 0.10 89 1006.9
20260506171817 65 158 0.0 2.0 0.00 0.10 0.10 88 1006.7
20260506171316 65 214 0.0 2.0 0.00 0.10 0.10 88 1006.7
20260506170816 65 192 0.0 2.0 0.01 0.10 0.10 88 1006.7
20260506170545 65 165 0.0 1.0 0.01 0.10 0.10 89 1007.0
20260506165815 65 167 0.0 2.0 0.01 0.10 0.10 88 1007.3
20260506165316 65 179 0.0 3.0 0.01 0.10 0.10 89 1007.3
20260506165035 65 322 1.0 5.0 0.01 0.10 0.10 88 1007.3
20260506164314 65 230 0.0 5.0 0.01 0.10 0.10 88 1007.6
20260506163810 65 75 0.0 2.0 0.01 0.10 0.10 89 1007.5
20260506163309 65 130 0.0 2.0 0.01 0.10 0.10 90 1007.3
20260506162808 64 175 0.0 1.0 0.01 0.10 0.10 90 1007.5
20260506162307 64 169 0.0 1.0 0.01 0.10 0.10 90 1007.2
20260506161805 64 347 0.0 1.0 0.01 0.10 0.10 91 1007.3
20260506161305 64 281 0.0 3.0 0.01 0.10 0.10 91 1007.2
20260506160759 63 30 0.0 3.0 0.00 0.09 0.09 90 1007.3
20260506160253 63 89 0.0 3.0 0.00 0.09 0.09 90 1007.4
20260506155747 63 165 0.0 3.0 0.00 0.09 0.09 91 1007.3
20260506155241 64 160 0.0 1.0 0.00 0.09 0.09 91 1007.1
20260506154734 64 153 0.0 1.0 0.00 0.09 0.09 91 1007.3
20260506154458 64 170 0.0 2.0 0.01 0.09 0.09 91 1007.4
20260506153928 63 152 0.0 1.0 0.04 0.09 0.09 91 1007.8
20260506153809 63 219 0.0 1.0 0.02 0.09 0.09 91 1007.6
20260506152712 63 161 0.0 1.0 0.05 0.09 0.09 92 1007.8
20260506152205 63 205 0.0 1.0 0.07 0.09 0.09 91 1007.8
20260506151659 63 214 0.0 1.0 0.08 0.09 0.09 91 1007.9
20260506151423 63 303 0.0 1.0 0.08 0.09 0.09 91 1008.0
20260506150647 63 151 0.0 1.0 0.08 0.09 0.09 91 1008.0
20260506150142 62 112 0.0 1.0 0.09 0.09 0.09 91 1008.0
20260506145635 62 112 0.0 1.0 0.09 0.09 0.09 91 1008.1
20260506145129 62 84 0.0 1.0 0.09 0.09 0.09 90 1008.2
20260506144623 62 80 0.0 1.0 0.09 0.09 0.09 89 1008.2